"TOA5","AWS1","CR1000","7964","CR1000.Std.14","CPU:AWS1_114.CR1","64363","TBL110"
"TIMESTAMP","RECORD","Wind_spd_WVc(1)","Wind_spd_WVc(2)","Air_Temp_Avg","Humidity_Avg","SW_upper_Wm2_Avg","Rain_Tot","Press_Avg","Issui_Tot","Depth_cm","SR50A_Raw","Quality","Ground_Temp_Avg(1)","Ground_Temp_Avg(2)","SW_lower_Wm2_Avg","Albedo_Avg","SWC_per(1)","SWC_per(2)","Period(1)","Period(2)"
"TS","RN","","","","","","","","","","","","","","","","","","",""
"","","WVc","WVc","Avg","Avg","Avg","Tot","Avg","Tot","Smp","Smp","Smp","Avg","Avg","Avg","Avg","Smp","Smp","Smp","Smp"
"2016-06-26 00:00:00",241549,0.145,139.2,11.42,100,0,0,859.8242,0,-24.02,3.352,246,17.04,17.57,0.06063266,0,52.66,60.86,33.95,35.88
"2016-06-26 00:10:00",241550,0.109,115.2,11.29,100,0,0,859.8157,0,-24.04,3.352,242,16.91,17.57,0.4092704,0,52.55,60.74,33.92,35.85
"2016-06-26 00:20:00",241551,0.183,86.1,11.24,100,0,0,859.8242,0,-28.23,3.393,221,16.9,17.58,0.4471658,0,52.49,60.68,33.91,35.83
"2016-06-26 00:30:00",241552,0.135,102.8,11.25,100,0,0,859.8242,0,-30.78,3.418,209,16.93,17.58,0.4395868,0,52.44,60.56,33.89,35.81
"2016-06-26 00:40:00",241553,0.015,130.3,11.24,100,0,0,859.8242,0,-22.89,3.341,195,16.96,17.54,0.420639,0,52.44,60.38,33.89,35.77
"2016-06-26 00:50:00",241554,0.209,127.3,11.22,100,0,0,859.8242,0,-21.52,3.328,195,16.97,17.49,0.2387411,0,52.44,60.27,33.89,35.74
"2016-06-26 01:00:00",241555,0.23,147,11.05,100,0,0,859.7589,0,17.45,2.947,259,16.96,17.45,0.2880051,0,52.38,60.21,33.88,35.73
"2016-06-26 01:10:00",241556,0.139,141.2,10.97,100,0,0,859.8242,0,-22.05,3.335,190,16.92,17.46,0.4547449,0,52.32,60.21,33.87,35.73
"2016-06-26 01:20:00",241557,0.063,77.86,10.91,100,0,0,859.8242,0,17.75,2.944,433,16.87,17.49,0.5987474,0,52.32,60.09,33.87,35.7
"2016-06-26 01:30:00",241558,0.276,122.9,10.94,100,0,0,859.8157,0,19.05,2.931,350,16.9,17.49,0.5419043,0,52.27,60.03,33.85,35.69
"2016-06-26 01:40:00",241559,0.362,159.8,10.92,100,0,0,859.683,0,16.86,2.953,250,16.85,17.49,0.4547449,0,52.21,59.97,33.84,35.67
"2016-06-26 01:50:00",241560,0.242,131.1,10.89,100,0,0,859.5777,0,19.73,2.925,389,16.85,17.49,0.4509554,0,52.16,59.91,33.83,35.66
"2016-06-26 02:00:00",241561,0.252,154.7,10.84,100,0,0,859.5714,0,18.9,2.933,257,16.84,17.47,0.4585344,0,52.1,59.91,33.81,35.66
"2016-06-26 02:10:00",241562,0.279,155.5,10.75,100,0,0,859.5546,0,19.24,2.931,286,16.86,17.43,0.4812717,0,52.1,59.79,33.81,35.63
"2016-06-26 02:20:00",241563,0.211,83.1,10.72,100,0,0,859.5777,0,18.35,2.939,260,16.8,17.43,0.6669592,0,52.05,59.67,33.8,35.6
"2016-06-26 02:30:00",241564,0.164,164.7,10.73,100,0,0,859.6114,0,17.5,2.948,251,16.79,17.39,0.511588,0,51.99,59.61,33.79,35.59
"2016-06-26 02:40:00",241565,0.207,93.5,10.77,100,0,0,859.5882,0,4.031,3.079,288,16.76,17.38,0.4547449,0,51.94,59.61,33.77,35.59
"2016-06-26 02:50:00",241566,0.111,132.2,10.87,100,0,0,859.702,0,18.78,2.935,346,16.76,17.4,0.4547449,0,51.94,59.56,33.77,35.58
"2016-06-26 03:00:00",241567,0.205,133.7,10.73,100,0,0,859.6072,0,11.44,3.007,320,16.78,17.4,0.4509554,0,51.94,59.5,33.77,35.56
"2016-06-26 03:10:00",241568,0.17,128.6,10.76,100,0,0,859.6409,0,-23.02,3.345,183,16.79,17.4,0.4547449,0,51.88,59.5,33.76,35.56
"2016-06-26 03:20:00",241569,0.199,131.3,10.76,100,0,0,859.6767,0,18.68,2.936,288,16.78,17.4,0.4547449,0,51.82,59.44,33.75,35.55
"2016-06-26 03:30:00",241570,0.425,143.7,10.7,100,0,0,859.8242,0,17.18,2.951,270,16.72,17.39,0.4509554,0,51.82,59.44,33.75,35.55
"2016-06-26 03:40:00",241571,0.383,139.2,10.75,100,0,0,859.8242,0,16.36,2.959,246,16.73,17.32,0.4547449,0,51.82,59.44,33.75,35.55
"2016-06-26 03:50:00",241572,0.13,115.2,10.85,100,0,0,859.8242,0,16.78,2.954,307,16.72,17.29,0.4547449,0,51.82,59.38,33.75,35.54
"2016-06-26 04:00:00",241573,0.425,143.6,10.91,100,0.03537255,0,860.0116,0,14.36,2.977,279,16.67,17.3,0.4547449,0.193,51.77,59.32,33.73,35.52
"2016-06-26 04:10:00",241574,0.258,101.2,10.9,100,0,0,860.2791,0,-24.29,3.356,203,16.67,17.32,0.4547449,0,51.77,59.32,33.73,35.52
"2016-06-26 04:20:00",241575,0.364,121.7,10.93,100,0,0,860.3192,0,-22.2,3.336,196,16.7,17.32,0.4547449,0,51.71,59.32,33.72,35.52
"2016-06-26 04:30:00",241576,0.444,121.1,10.88,100,0,0,860.3297,0,17.7,2.945,262,16.71,17.32,0.4547449,0,51.71,59.26,33.72,35.51
"2016-06-26 04:40:00",241577,0.31,143.4,10.86,100,0,0,860.3297,0,318,0,0,16.63,17.32,0.4168495,0,51.71,59.26,33.72,35.51
"2016-06-26 04:50:00",241578,0.4,135.7,10.98,100,0.6170545,0,860.3297,0,16.94,2.952,250,16.55,17.32,0.4547449,0.619,51.66,59.2,33.7,35.5
"2016-06-26 05:00:00",241579,0.264,103.4,11.02,100,0.8489412,0,860.3823,0,16.18,2.959,248,16.57,17.32,0.4547449,0.57,51.66,59.2,33.7,35.5
"2016-06-26 05:10:00",241580,0.42,130.3,11.1,100,1.198736,0,860.5466,0,-19.86,3.312,172,16.59,17.32,0.462324,0.418,51.66,59.2,33.7,35.5
"2016-06-26 05:20:00",241581,0.254,117.6,11.11,100,1.611416,0,860.5319,0,-22.66,3.339,174,16.62,17.3,0.4964299,0.336,51.6,59.14,33.69,35.48
"2016-06-26 05:30:00",241582,0.158,90.6,11.18,100,1.957281,0.5,860.5823,0,17.61,2.944,265,16.62,17.26,0.5873788,0.316,51.66,59.2,33.7,35.5
"2016-06-26 05:40:00",241583,0.537,106,11.12,100,3.486161,0,860.5844,0,17.6,2.945,302,16.62,17.22,0.7503291,0.22,51.6,59.14,33.69,35.48
"2016-06-26 05:50:00",241584,0.413,131.1,11.13,100,8.591599,0,860.5866,0,19.58,2.925,254,16.62,17.19,1.493079,0.176,51.55,59.2,33.68,35.5
"2016-06-26 06:00:00",241585,0.396,137.1,11.15,100,6.068357,0,860.5992,0,-26.26,3.374,219,16.59,17.19,1.061072,0.175,51.55,59.14,33.68,35.48
"2016-06-26 06:10:00",241586,0.521,124.8,11.25,100,6.771879,0,860.7741,0,-22.15,3.333,181,16.54,17.19,1.246759,0.184,51.55,59.14,33.68,35.48
"2016-06-26 06:20:00",241587,0.148,77.57,11.39,100,7.274955,0,860.8373,0,8.23,3.035,250,16.54,17.19,1.31876,0.186,51.55,59.14,33.68,35.48
"2016-06-26 06:30:00",241588,0.19,56.32,11.43,100,7.636541,0,861.0541,0,8.54,3.032,225,16.55,17.19,1.246759,0.164,51.49,59.14,33.66,35.48
"2016-06-26 06:40:00",241589,0.123,46.85,11.42,100,12.63979,0.5,861.0605,0,18.42,2.935,277,16.57,17.21,1.921297,0.154,51.49,59.08,33.66,35.47
"2016-06-26 06:50:00",241590,0.154,87.1,11.49,100,21.14492,0,861.0752,0,-25.06,3.361,246,16.52,17.23,2.97479,0.141,51.55,59.08,33.68,35.47
"2016-06-26 07:00:00",241591,0.036,66.54,11.55,100,34.84589,0,861.0647,0,17.43,2.944,289,16.5,17.23,4.771032,0.137,51.55,59.08,33.68,35.47
"2016-06-26 07:10:00",241592,0.068,58.47,11.64,100,19.86365,0,861.0879,0,16.57,2.952,288,16.52,17.2,2.463202,0.122,51.49,59.08,33.66,35.47
"2016-06-26 07:20:00",241593,0.114,13.23,11.56,100,11.81836,0.5,861.0879,0,7.834,3.038,451,16.53,17.18,1.424867,0.121,51.55,59.03,33.68,35.45
"2016-06-26 07:30:00",241594,0.317,54.21,11.52,100,14.82896,0,861.2227,0,-21.95,3.33,196,16.48,17.19,1.837927,0.124,51.55,59.03,33.68,35.45
"2016-06-26 07:40:00",241595,0.051,11.45,11.6,100,21.21567,0.5,861.3407,0,11.61,3.001,333,16.46,17.16,2.648889,0.125,51.55,59.03,33.68,35.45
"2016-06-26 07:50:00",241596,0.457,15.28,11.52,100,24.1398,1,861.3407,0,19.74,2.922,258,16.45,17.1,2.963421,0.121,51.6,59.03,33.69,35.45
"2016-06-26 08:00:00",241597,0.303,14.97,11.49,100,50.79891,0,861.3491,0,21.13,2.908,291,16.45,17.1,6.400535,0.126,51.66,59.08,33.7,35.47
"2016-06-26 08:10:00",241598,0.266,352.1,11.44,100,39.99063,0,861.5533,0,8.46,3.033,295,16.42,17.11,4.960509,0.124,51.71,59.08,33.72,35.47
"2016-06-26 08:20:00",241599,0.254,184.8,11.47,100,52.30028,0,861.5281,0,-23,3.341,212,16.41,17.14,6.506642,0.124,51.71,59.14,33.72,35.48
"2016-06-26 08:30:00",241600,0.429,191.3,11.42,100,73.24476,0,861.4713,0,-21.72,3.328,200,16.41,17.14,9.557222,0.13,51.71,59.14,33.72,35.48
"2016-06-26 08:40:00",241601,0.717,176.7,11.41,100,114.5403,0,861.3807,0,-22.44,3.336,206,16.41,17.14,14.91563,0.13,51.77,59.14,33.73,35.48
"2016-06-26 08:50:00",241602,0.469,166.5,11.46,100,142.575,0,861.3828,0,15.69,2.962,362,16.41,17.14,18.50433,0.13,51.71,59.2,33.72,35.5
"2016-06-26 09:00:00",241603,0.939,170.2,11.35,100,202.948,0,861.3723,0,-21.08,3.322,201,16.42,17.13,27.56133,0.135,51.71,59.2,33.72,35.5
"2016-06-26 09:10:00",241604,0.93,179.5,11.52,100,281.7817,0,861.3407,0,-25.93,3.369,232,16.41,17.13,37.96362,0.135,51.71,59.14,33.72,35.48
"2016-06-26 09:20:00",241605,0.842,189.4,11.69,100,310.6064,0,861.387,0,14.38,2.973,262,16.41,17.13,41.49168,0.133,51.71,59.2,33.72,35.5
"2016-06-26 09:30:00",241606,0.327,223.4,12.04,100,260.0629,0,861.5596,0,16.27,2.952,299,16.41,17.11,34.93957,0.134,51.71,59.2,33.72,35.5
"2016-06-26 09:40:00",241607,0.342,203.4,12.24,96.3,268.2065,0,861.5934,0,11.02,3.002,240,16.41,17.09,35.9059,0.134,51.71,59.2,33.72,35.5
"2016-06-26 09:50:00",241608,0.284,228.3,12.44,88.4,182.597,0,861.5997,0,11.19,3.001,224,16.4,17.05,22.84335,0.123,51.71,59.2,33.72,35.5
"2016-06-26 10:00:00",241609,0.203,259,11.95,96.2,86.68633,0,861.8356,0,318,0,0,16.41,16.99,9.276796,0.107,51.71,59.14,33.72,35.48
"2016-06-26 10:10:00",241610,0.289,285.5,11.81,92.5,84.98845,0,861.8461,0,19.67,2.921,339,16.41,17.01,9.674698,0.114,51.71,59.14,33.72,35.48
"2016-06-26 10:20:00",241611,0.395,301.7,11.64,96.4,60.02722,0,861.8546,0,18.58,2.933,277,16.4,17.01,6.480115,0.108,51.66,59.2,33.7,35.5
"2016-06-26 10:30:00",241612,0.649,199.2,11.63,98.1,49.03815,0,861.8461,0,16.16,2.956,403,16.42,17.05,5.77526,0.118,51.66,59.14,33.7,35.48
"2016-06-26 10:40:00",241613,0.81,181.4,11.63,100,83.53818,0.5,861.8461,0,12.08,2.996,369,16.45,17.06,11.08062,0.132,51.66,59.14,33.7,35.48
"2016-06-26 10:50:00",241614,0.788,183.1,11.68,100,150.1722,0,861.8714,0,-27.44,3.382,307,16.45,17.05,20.19825,0.134,51.66,59.14,33.7,35.48
"2016-06-26 11:00:00",241615,0.828,251.5,11.79,100,156.1895,0,861.9641,0,17.62,2.941,350,16.5,17.04,21.25554,0.136,51.66,59.08,33.7,35.47
"2016-06-26 11:10:00",241616,0.764,71.98,11.83,100,158.6066,0,862.0988,0,-24.15,3.35,189,16.51,16.98,21.41849,0.135,51.6,59.14,33.69,35.48
"2016-06-26 11:20:00",241617,0.559,197.5,11.89,100,182.2865,0,862.0988,0,-22.24,3.33,190,16.5,16.97,25.11708,0.138,51.6,59.14,33.69,35.48
"2016-06-26 11:30:00",241618,0.53,52.55,12.12,95.5,248.8655,0,862.0988,0,16.06,2.954,257,16.55,16.95,34.10966,0.137,51.6,59.14,33.69,35.48
"2016-06-26 11:40:00",241619,0.487,325.8,12.54,89.1,225.1856,0,862.0756,0,18.14,2.931,237,16.53,16.96,30.44138,0.135,51.55,59.14,33.68,35.48
"2016-06-26 11:50:00",241620,0.286,49.96,12.92,84.5,193.2953,0,862.0967,0,18.26,2.929,330,16.54,16.95,25.94699,0.134,51.55,59.08,33.68,35.47
"2016-06-26 12:00:00",241621,0.487,258.9,12.92,85.6,197.1352,0,862.0988,0,12.56,2.984,295,16.57,16.9,26.89437,0.136,51.55,59.08,33.68,35.47
"2016-06-26 12:10:00",241622,0.351,274,13.01,84.1,150.0386,0,862.042,0,13.95,2.97,262,16.58,16.89,20.25131,0.135,51.55,59.08,33.68,35.47
"2016-06-26 12:20:00",241623,0.126,211.1,13.17,89.8,177.7746,0,861.9431,0,17.59,2.934,320,16.58,16.89,24.54107,0.138,51.55,59.08,33.68,35.47
"2016-06-26 12:30:00",241624,0.186,247,13.45,89.1,314.8983,0,862.0897,0,18.33,2.925,354,16.52,16.9,44.09889,0.14,51.55,59.08,33.68,35.47
"2016-06-26 12:40:00",241625,0.635,189.4,13.98,87.5,563.1362,0,862.033,0,16.45,2.942,259,16.56,16.92,80.50084,0.143,51.49,59.08,33.66,35.47
"2016-06-26 12:50:00",241626,0.307,193.7,14.65,84.6,834.0681,0,861.926,0,318,0,0,16.58,16.92,120.6926,0.143,51.55,59.03,33.68,35.45
"2016-06-26 13:00:00",241627,0.393,277.9,15.34,78.72,612.5481,0,861.9802,0,-20.25,3.293,186,16.58,16.87,84.63356,0.137,51.55,59.03,33.68,35.45
"2016-06-26 13:10:00",241628,0.419,169.2,14.88,83.1,634.665,0,861.9685,0,-25.95,3.347,193,16.53,16.81,93.23318,0.14,51.49,59.03,33.66,35.45
"2016-06-26 13:20:00",241629,0.366,234.7,15.91,77.51,847.0676,0,861.7614,0,-24.09,3.324,223,16.55,16.78,129.8028,0.147,51.49,59.03,33.66,35.45
"2016-06-26 13:30:00",241630,0.198,289.3,15.52,77.38,516.7413,0,861.767,0,18.11,2.917,253,16.63,16.76,75.52671,0.141,51.44,58.97,33.65,35.44
"2016-06-26 13:40:00",241631,0.301,39,15.94,71.55,808.9987,0,861.7311,0,-18.38,3.268,204,16.58,16.75,124.8837,0.146,51.38,58.97,33.64,35.44
"2016-06-26 13:50:00",241632,0.595,217.8,16.22,74.28,728.4072,0,861.5436,0,-15.09,3.239,198,16.69,16.75,109.0638,0.139,51.38,58.97,33.64,35.44
"2016-06-26 14:00:00",241633,0.3,273.4,16.02,69.79,754.6092,0,861.5963,0,19.21,2.903,244,16.68,16.75,115.5758,0.146,51.38,58.91,33.64,35.43
"2016-06-26 14:10:00",241634,0.425,287.3,15.59,71.91,462.1777,0,861.5858,0,20.23,2.897,284,16.7,16.76,64.27148,0.133,51.38,58.91,33.64,35.43
"2016-06-26 14:20:00",241635,0.323,287.2,15.09,76.13,240.8208,0,861.8279,0,18.79,2.913,265,16.76,16.79,30.12797,0.125,51.33,58.91,33.62,35.43
"2016-06-26 14:30:00",241636,0.3,274.9,14.79,78.17,263.5066,0,862.009,0,19.61,2.905,274,16.78,16.75,36.93925,0.139,51.33,58.91,33.62,35.43
"2016-06-26 14:40:00",241637,0.317,13.61,15.24,74.54,431.6537,0,862.0216,0,10.14,2.995,293,16.84,16.75,65.32841,0.149,51.27,58.85,33.61,35.41
"2016-06-26 14:50:00",241638,0.691,74.81,15.39,70.3,311.0547,0,862.0237,0,-15.87,3.249,238,16.97,16.75,45.02338,0.145,51.27,58.85,33.61,35.41
"2016-06-26 15:00:00",241639,0.498,348.4,15.18,70.24,203.378,0,862.2048,0,318,0,0,16.96,16.76,29.74914,0.146,51.27,58.85,33.61,35.41
"2016-06-26 15:10:00",241640,0.455,264.3,15.1,69.43,276.0399,0,862.2301,0,19.57,2.905,266,17.05,16.79,42.0155,0.154,51.21,58.85,33.6,35.41
"2016-06-26 15:20:00",241641,0.433,203.4,15.58,74.46,827.0157,0,862.2575,0,19.61,2.902,234,17.06,16.75,93.20615,0.111,51.16,58.85,33.58,35.41
"2016-06-26 15:30:00",241642,0.378,319.2,15.53,69.83,189.662,0,862.2617,0,17.85,2.92,262,17.1,16.76,23.15001,0.123,51.16,58.79,33.58,35.4
"2016-06-26 15:40:00",241643,0.322,15.8,15.36,71.21,212.5246,0,862.2617,0,19,2.909,224,17.17,16.75,30.28329,0.142,51.21,58.79,33.6,35.4
"2016-06-26 15:50:00",241644,0.173,269.4,15.13,73.03,197.241,0,862.4343,0,19.25,2.909,240,17.25,16.75,26.99508,0.136,51.16,58.79,33.58,35.4
"2016-06-26 16:00:00",241645,0.268,261.4,14.79,74.87,130.2564,0,862.5143,0,18.74,2.915,238,17.19,16.78,16.70619,0.128,51.16,58.79,33.58,35.4
"2016-06-26 16:10:00",241646,0.123,245.4,14.6,76.97,110.4505,0,862.5501,0,-16.39,3.258,197,17.27,16.78,14.53931,0.131,51.1,58.79,33.57,35.4
"2016-06-26 16:20:00",241647,0.188,38.54,14.67,76.49,160.7529,0,862.7543,0,-15.16,3.244,198,17.35,16.78,24.08949,0.149,51.16,58.79,33.58,35.4
"2016-06-26 16:30:00",241648,0.257,235.7,15.1,77.02,183.8807,0,862.6301,0,-1.192,3.107,208,17.39,16.77,31.29509,0.168,51.1,58.73,33.57,35.39
"2016-06-26 16:40:00",241649,0.223,200.1,15.03,77.73,129.2708,0,862.5143,0,-47.7,3.561,340,17.4,16.76,20.97758,0.159,51.1,58.73,33.57,35.39
"2016-06-26 16:50:00",241650,0.278,226.7,15.1,76.03,104.7009,0,862.7185,0,-34.74,3.434,240,17.46,16.77,14.48769,0.138,51.1,58.67,33.57,35.37
"2016-06-26 17:00:00",241651,0.268,63.96,14.98,76.58,65.12501,0,862.7802,0,7.253,3.027,229,17.47,16.77,6.342184,0.097,51.05,58.67,33.56,35.37
"2016-06-26 17:10:00",241652,0.262,322.7,14.81,73.83,109.2679,0,862.9603,0,19.11,2.911,238,17.47,16.78,15.76462,0.143,51.05,58.67,33.56,35.37
"2016-06-26 17:20:00",241653,0.167,324.9,14.9,76.5,130.6841,0,863.0649,0,18.64,2.915,232,17.49,16.8,19.16813,0.146,50.99,58.67,33.54,35.37
"2016-06-26 17:30:00",241654,0.106,249.6,14.79,78.9,99.31541,0,863.2903,0,20.11,2.902,248,17.52,16.82,14.35324,0.145,51.05,58.67,33.56,35.37
"2016-06-26 17:40:00",241655,0.129,37.06,14.7,83,92.59827,0,863.3456,0,19.43,2.909,241,17.59,16.83,13.44805,0.145,50.99,58.61,33.54,35.36
"2016-06-26 17:50:00",241656,0.103,257,14.55,80.2,77.08381,0,863.565,0,18.49,2.918,242,17.61,16.83,11.05719,0.143,50.99,58.61,33.54,35.36
"2016-06-26 18:00:00",241657,0.105,245.1,14.63,80.7,98.62698,0,863.6556,0,18.59,2.917,242,17.59,16.83,14.66442,0.148,50.99,58.61,33.54,35.36
"2016-06-26 18:10:00",241658,0.178,287.7,14.52,80.6,55.55058,0,863.8056,0,18.91,2.915,242,17.59,16.84,6.597112,0.114,50.99,58.61,33.54,35.36
"2016-06-26 18:20:00",241659,0.094,29.83,14.2,82.2,24.0323,0,863.8805,0,18.94,2.916,248,17.61,16.86,1.534672,0.06,50.94,58.56,33.53,35.35
"2016-06-26 18:30:00",241660,0.251,21.33,13.94,82.4,19.46618,0,864.0609,0,19.33,2.913,243,17.62,16.88,1.602937,0.08,50.94,58.56,33.53,35.35
"2016-06-26 18:40:00",241661,0.322,327.6,13.92,81.8,16.97472,0,864.2313,0,19.22,2.915,258,17.62,16.88,1.872014,0.11,50.94,58.56,33.53,35.35
"2016-06-26 18:50:00",241662,0.354,55.43,13.45,88.1,16.08267,0,864.3549,0,19.38,2.916,245,17.62,16.89,2.228244,0.136,50.88,58.61,33.52,35.36
"2016-06-26 19:00:00",241663,0.21,328,13.73,84.5,20.59074,0,864.4515,0,19.43,2.912,240,17.62,16.92,4.388286,0.212,50.94,58.56,33.53,35.35
"2016-06-26 19:10:00",241664,0.272,68.82,13.69,84.2,8.544435,0,864.4079,0,19.28,2.915,234,17.63,16.96,1.73561,0.183,50.94,58.56,33.53,35.35
"2016-06-26 19:20:00",241665,0.27,353.2,13.72,82,0,0,864.4259,0,19.48,2.912,237,17.6,16.96,0.2122143,0,50.88,58.56,33.52,35.35
"2016-06-26 19:30:00",241666,0.392,329.6,13.68,84.3,0,0,864.6179,0,18.38,2.924,238,17.58,16.99,0.0189477,0,50.88,58.56,33.52,35.35
"2016-06-26 19:40:00",241667,0.2,322.9,13.23,89.6,0,0,864.6833,0,18.06,2.932,248,17.6,17,0,0,50.88,58.56,33.52,35.35
"2016-06-26 19:50:00",241668,0,0,12.42,100,0,0,864.8665,0,18.65,2.928,249,17.62,17.01,0,0,50.88,58.5,33.52,35.33
"2016-06-26 20:00:00",241669,0.194,182,12.37,100,0,0,864.8791,0,18.36,2.932,262,17.61,17.04,0,0,50.83,58.5,33.5,35.33
"2016-06-26 20:10:00",241670,0.235,130.8,11.94,100,0,0,864.9338,0,18.62,2.931,246,17.58,17.05,0,0,50.83,58.5,33.5,35.33
"2016-06-26 20:20:00",241671,0.072,77.85,11.99,100,0,0,865.1318,0,18.79,2.928,254,17.59,17.05,0.189477,0,50.83,58.44,33.5,35.32
"2016-06-26 20:30:00",241672,0.044,38.81,12.37,100,0,0,865.2161,0,18.69,2.927,262,17.56,17.06,0.833699,0,50.83,58.38,33.5,35.31
"2016-06-26 20:40:00",241673,0.205,46.71,12.82,97.1,0,0,865.3846,0,18.95,2.924,265,17.54,17.06,1.140652,0,50.83,58.32,33.5,35.29
"2016-06-26 20:50:00",241674,0.272,341.1,12.74,99.5,0,0,865.5215,0,18.83,2.923,261,17.55,17.06,0.9094898,0,50.83,58.32,33.5,35.29
"2016-06-26 21:00:00",241675,0.239,8.62,13.01,92.6,0,0,865.6374,0,-20.63,3.308,196,17.48,17.05,0.9966493,0,50.83,58.32,33.5,35.29
"2016-06-26 21:10:00",241676,0.093,358.1,13.01,91,0,0,865.6142,0,18.98,2.923,271,17.44,17.04,0.6214847,0,50.77,58.26,33.49,35.28
"2016-06-26 21:20:00",241677,0.121,139.7,12.12,99.2,0,0,865.5678,0,18.7,2.928,270,17.46,17.03,0.02652679,0,50.77,58.26,33.49,35.28
"2016-06-26 21:30:00",241678,0.048,158.9,12.4,93.5,0,0,865.5636,0,18.42,2.929,277,17.42,17.04,0.4774822,0,50.77,58.26,33.49,35.28
"2016-06-26 21:40:00",241679,0.023,352.6,12.53,88.9,0,0,865.6226,0,18.25,2.93,259,17.38,17.04,0.7654873,0,50.77,58.26,33.49,35.28
"2016-06-26 21:50:00",241680,0.212,33.71,12.64,87.1,0,0,865.631,0,19.02,2.922,245,17.36,17.03,0.7882245,0,50.77,58.21,33.49,35.26
"2016-06-26 22:00:00",241681,0.083,35.46,12.79,86.4,0,0,865.6374,0,18.96,2.923,265,17.33,17.02,0.8791735,0,50.77,58.26,33.49,35.28
"2016-06-26 22:10:00",241682,0.121,60.67,12.03,94.6,0,0,865.6605,0,18.59,2.932,251,17.26,17.02,0.0833699,0,50.72,58.21,33.47,35.26
"2016-06-26 22:20:00",241683,0.146,83.4,11.43,100,0,0,865.6816,0,18.49,2.935,259,17.31,17.03,0,0,50.66,58.21,33.46,35.26
"2016-06-26 22:30:00",241684,0.11,67.95,11.37,99.5,0,0,865.6374,0,18.77,2.932,260,17.25,17.04,0,0,50.72,58.15,33.47,35.25
"2016-06-26 22:40:00",241685,0.254,29.44,11.93,90.8,0,0,865.6458,0,19.16,2.922,266,17.19,17.05,1.117915,0,50.72,58.21,33.47,35.26
"2016-06-26 22:50:00",241686,0.199,92.6,12.76,85.1,0,0,865.8796,0,18.63,2.926,261,17.19,17.02,1.633292,0,50.66,58.15,33.46,35.25
"2016-06-26 23:00:00",241687,0.164,111.6,11.77,95.1,0,0,865.8838,0,18.35,2.937,258,17.18,17.02,0.1212653,0,50.66,58.21,33.46,35.26
"2016-06-26 23:10:00",241688,0.078,159.3,11.54,96.2,0,0,865.7996,0,18.68,2.928,269,17.11,17.03,0.4433763,0,50.66,58.15,33.46,35.25
"2016-06-26 23:20:00",241689,0.207,168,12.27,85,0,0,865.7153,0,18.81,2.928,268,17.12,17.02,1.023176,0,50.66,58.15,33.46,35.25
"2016-06-26 23:30:00",241690,0.533,182.8,12.22,80.9,0,0,865.6542,0,18.33,2.933,273,17.11,17.02,0.7768559,0,50.66,58.15,33.46,35.25
"2016-06-26 23:40:00",241691,0.722,187.7,12.01,80.2,0,0,865.6395,0,18.2,2.934,284,17,17.01,0.181898,0,50.61,58.09,33.45,35.24
"2016-06-26 23:50:00",241692,0.402,162.2,11.26,88,0,0,865.749,0,18.42,2.937,263,17.05,17.02,0,0,50.61,58.09,33.45,35.24
